Regional Weather Roundup
Issued by NWS

Home | Current Version | Previous Version | Graphics & Text | Print | Product List | Glossary Off
Versions: 1 2 3 4 5 6 7 8 9 10 11 12 13 14 15 16 17 18 19 20 21 22 23 24 25 26 27 28 29 30 31 32 33 34 35 36 37 38 39 40 41 42 43 44 45 46 47 48 49 50

000
ASUS43 KDTX 280901
RWRMI
MICHIGAN HOURLY REGIONAL WEATHER ROUNDUP
NATIONAL WEATHER SERVICE DETROIT/PONTIAC MI
500 AM EDT WED SEP 28 2016

NOTE: "FAIR" INDICATES FEW OR NO CLOUDS BELOW 12,000 FEET WITH NO
SIGNIFICANT WEATHER AND/OR OBSTRUCTION TO VISIBILITY.

MIZ047>049-052>055-059>063-066>070-074>076-081>083-281000-
SOUTHEAST LOWER MICHIGAN

CITY           SKY/WX    TMP DP  RH WIND       PRES   REMARKS
ADRIAN         CLOUDY    51  47  86 N6        29.81F
ALMA           CLOUDY    50  50  99 W3        29.83S
ANN ARBOR      CLOUDY    51  47  86 N6        29.81F
BAD AXE        CLOUDY    51  47  88 E5        29.86S
CARO           PTCLDY    49  48  97 CALM      29.85R
DETROIT CITY   PTCLDY    56  49  77 NE3       29.83S
DETROIT        CLOUDY    55  47  74 NE7       29.82S
FLINT          PTCLDY    49  47  93 CALM      29.85R
GROSSE ILE     CLOUDY    58  49  74 E6        29.80F
HILLSDALE      CLOUDY    48  45  87 E3        29.79S
HOWELL         CLOUDY    49  46  90 CALM      29.83S

CITY           SKY/WX    TMP DP  RH WIND       PRES   REMARKS
JACKSON        CLOUDY    51  47  86 NE5       29.81S
LAMBERTVILLE   CLOUDY    51  47  85 SE3       29.81F
LANSING        CLOUDY    50  45  83 CALM      29.82F
LAPEER         FAIR      49  47  94 CALM      29.85R
MASON          CLOUDY    49  47  91 SE5       29.82S
MONROE         PTCLDY    49  46  88 CALM      29.80F
MT. CLEMENS    CLOUDY    52  47  84 N6        29.81F
PONTIAC        CLOUDY    51  46  83 NE5       29.83S
PORT HURON     PTCLDY    48  48 100 CALM      29.84F
TRI CITIES     CLOUDY    52  50  93 S6        29.85R
MIDLAND        MOCLDY    50  50  98 CALM      29.83R
TROY           CLOUDY    56  44  64 NE5       29.85S
SAGINAW HB     CLOUDY    50  48  93 SE3       29.84R
$$
MIZ043>046-050>051-056>058-064>065-071>073-077>080-281000-
SOUTHWEST LOWER MICHIGAN

CITY           SKY/WX    TMP DP  RH WIND       PRES   REMARKS
BATTLE CREEK   PTCLDY    54  46  74 E7        29.80S
BENTON HARBOR  CLOUDY    53  49  86 CALM      29.78F
BIG RAPIDS     CLOUDY    51  50  98 SE5       29.80R
COLDWATER      CLOUDY    50  46  84 CALM      29.79S
FREMONT        DRIZZLE   51  50  99 S5        29.80R
HOLLAND        LGT RAIN  53  50  89 SE6       29.81R
GRAND RAPIDS   RAIN      52  49  89 E9        29.81S FOG
IONIA          CLOUDY    49  47  93 CALM      29.82R
KALAMAZOO      CLOUDY    53  46  77 E3        29.80R
LUDINGTON      DRIZZLE   49  49 100 E3        29.78R
MARSHALL       PTCLDY    51  47  83 NE3       29.79F
MOUNT PLEASANT CLOUDY    52  50  93 CALM      29.82R
MUSKEGON       LGT RAIN  55  48  77 CALM      29.80R
SOUTH HAVEN    RAIN      54  52  94 E9        29.79S
$$
MIZ016>042-281000-
NORTHERN LOWER MICHIGAN

CITY           SKY/WX    TMP DP  RH WIND       PRES   REMARKS
ALPENA         CLOUDY    51  49  92 CALM      29.87R
BEAVER ISLAND  PTCLDY    51  50  97 SE6       29.83R
BELLAIRE       CLOUDY    48  47  95 CALM      29.83R
CADILLAC       MOCLDY    47  46  97 CALM      29.80R
CHARLEVOIX     PTCLDY    49  49  99 E3        29.86R
FRANKFORT      DRIZZLE   51  49  92 E5        29.79R
GAYLORD        CLOUDY    48  46  93 CALM      29.84R FOG
GRAYLING       DRIZZLE   49  48  98 E3        29.84R
HARBOR SPRINGS CLOUDY    47  47  99 E6        29.84R
HOUGHTON LAKE  CLOUDY    48  48 100 SE3       29.84R
MANISTEE       LGT RAIN  50  49  96 E5        29.78R
OSCODA         CLOUDY    51  50  97 NW3       29.85R
PELLSTON       MOCLDY    44  42  93 CALM      29.86R FOG
ROGERS CITY    CLOUDY    50  48  93 CALM      29.87R
TRAVERSE CITY  CLOUDY    51  49  92 CALM      29.80R
$$
MIZ007>008-015-281000-
EASTERN UPPER MICHIGAN

CITY           SKY/WX    TMP DP  RH WIND       PRES   REMARKS
KINROSS        LGT RAIN  51  50  96 E6        29.87R
MACKINAC ISLAN CLOUDY    51  51 100 SE3       29.85R
NEWBERRY       FOG       48  47  97 E3        29.86R VSB 1/2
S. S. MARIE    CLOUDY    54  52  93 E5        29.87R
MUNISING         N/A     51  49  92 E3        29.84R
$$
MIZ004>006-011>014-085-281000-
CENTRAL UPPER MICHIGAN

CITY           SKY/WX    TMP DP  RH WIND       PRES   REMARKS
MANISTIQUE     CLOUDY    50  48  92 NE9       29.82R
ESCANABA       PTCLDY    46  46 100 N3        29.81R
MENOMINEE      PTCLDY    47  46  97 N5        29.80R
SAWYER-GWINN   CLOUDY    49  47  95 E6        29.83R
$$
MIZ001>003-009>011-084-281000-
WESTERN UPPER MICHIGAN

CITY           SKY/WX    TMP DP  RH WIND       PRES   REMARKS
IRON MOUNTAIN  PTCLDY    44  42  93 CALM      29.80R FOG
HOUGHTON       PTCLDY    53  49  86 NE10      29.87R
COPPER HARBOR    N/A     56  50  80 SE6       29.89R
IRONWOOD       LGT RAIN  53  51  93 NE8       29.89R
$$

ABBREVIATIONS USED IN REMARKS
   TC - TEMPERATURE IN CELSIUS
  WCI - WIND CHILL INDEX
   HX - HEAT INDEX
  VSB - VISIBILITY




USA.gov is the U.S. government's official web portal to all federal, state and local government web resources and services.